Wind_Speed
63 63 64 66 67 68 68 68 68 69 69 70 71 72 72 73 75 77 79 80 81 82 82 83 85 86 85 83 83 83 81 79 76 73 70 66 62 59 55 52 49 47 47 46 46 46 48 50 50 54 59 64 69 71 73 78 83 86 86 82 77 75 71 66 65 67 66 63 63 63 61 59 57 54
62 63 65 66 67 67 68 68 68 69 69 70 70 71 71 72 73 75 78 79 80 81 83 84 83 83 82 81 81 81 79 77 74 71 67 63 58 55 51 48 45 44 43 44 45 45 47 50 52 53 58 63 68 72 74 77 82 86 88 86 81 78 75 70 67 68 69 69 68 67 63 60 57 54
62 64 65 66 67 67 67 68 68 68 69 69 69 69 70 71 73 74 77 80 81 81 82 82 81 80 80 78 77 77 75 74 72 69 64 59 54 51 48 44 41 40 41 42 43 45 46 50 53 54 56 62 68 72 75 77 81 86 89 89 86 82 79 75 70 69 71 73 71 67 63 59 57 55
63 64 65 66 67 67 67 67 67 67 67 68 68 68 69 71 73 75 77 80 82 82 81 80 79 78 77 76 75 74 73 70 68 65 60 55 51 49 45 43 39 37 39 40 42 44 45 48 53 55 56 61 67 72 75 78 80 85 89 91 91 87 83 80 75 71 72 74 72 68 65 61 59 58
64 65 66 66 66 66 66 66 66 66 66 67 68 69 70 72 73 75 77 79 81 82 81 79 78 76 75 75 74 73 71 67 64 61 57 53 50 47 44 41 39 36 36 39 40 42 44 46 51 56 58 60 65 71 75 78 81 84 88 92 94 91 87 85 81 76 73 74 74 71 68 65 62 60
64 65 66 66 65 64 64 64 65 65 66 67 68 70 72 73 74 76 77 78 78 79 78 76 75 74 74 74 73 71 69 65 61 58 54 51 47 44 41 40 39 36 34 36 39 40 42 44 49 55 59 60 64 69 74 77 81 84 88 92 96 96 92 88 86 81 76 75 75 74 71 68 65 63
65 66 65 64 63 62 62 63 64 65 66 68 70 71 73 74 76 77 77 76 76 75 74 73 72 73 73 73 72 69 67 62 58 54 51 48 45 40 36 37 38 37 34 33 36 39 42 43 47 52 58 61 62 67 72 76 80 84 87 91 96 99 97 92 90 86 80 77 77 77 75 71 68 66
65 64 63 62 61 61 61 62 64 65 67 69 71 72 74 76 77 77 77 76 74 73 72 72 72 72 72 72 71 68 65 61 57 53 48 45 43 37 32 33 36 36 33 32 34 38 41 43 45 49 55 60 62 65 70 75 78 83 87 91 96 100 101 98 93 89 85 80 78 79 78 74 71 68
63 62 60 59 60 60 61 63 64 66 68 70 72 74 76 77 78 78 77 75 73 72 71 71 72 72 72 72 71 68 65 61 57 53 49 44 40 36 32 31 33 33 32 32 33 35 39 42 44 47 53 58 62 64 68 73 77 81 86 90 95 100 103 102 99 93 88 84 80 79 79 77 73 71
60 59 58 58 59 60 62 64 65 67 69 71 73 75 77 78 78 78 77 75 74 72 71 72 72 72 72 71 70 68 65 61 55 51 48 44 38 33 31 31 30 30 30 32 33 33 35 39 43 46 50 57 62 65 67 71 76 80 84 89 94 99 103 105 104 99 92 87 83 80 80 79 75 73
57 57 57 58 59 61 63 65 67 68 70 72 75 77 78 78 78 78 77 76 73 71 71 72 72 71 70 70 69 67 65 62 57 50 46 43 39 33 30 31 30 28 27 29 32 33 32 36 42 46 49 54 61 65 67 70 75 78 82 87 92 97 102 105 106 103 97 91 86 82 81 80 77 74
56 56 57 58 60 62 64 66 68 70 72 74 75 78 79 79 78 78 77 75 72 70 71 71 71 69 68 67 67 66 64 62 58 52 44 40 38 32 28 29 31 29 26 25 28 31 32 33 38 44 49 53 58 64 67 69 73 77 81 85 90 96 100 104 106 106 102 95 90 86 83 81 79 76
55 56 57 59 61 63 66 68 69 71 72 74 76 78 79 79 78 78 76 74 71 70 70 69 68 67 65 64 64 63 62 59 55 50 44 38 36 33 28 27 30 31 28 25 25 28 31 33 36 41 47 52 56 62 67 69 72 76 80 84 89 94 99 103 106 107 106 100 94 89 86 83 81 79
56 57 58 61 63 66 68 69 70 71 72 73 75 77 78 78 77 76 75 72 70 70 69 67 65 63 61 61 61 60 59 58 54 50 46 41 38 36 33 30 31 32 29 26 24 25 29 32 35 38 44 50 54 59 65 69 71 75 80 84 88 92 97 102 105 107 107 104 98 92 89 86 84 82
57 58 60 63 66 68 69 70 71 72 72 74 75 77 78 77 75 74 72 70 70 70 68 65 62 60 58 58 58 58 56 56 54 51 48 44 40 38 36 34 35 36 34 29 24 23 26 31 34 37 41 47 52 57 62 68 71 73 78 83 87 91 96 100 104 106 108 107 102 96 92 88 86 85
58 60 62 65 67 69 70 70 71 72 73 74 76 78 78 77 75 72 70 69 69 69 66 64 61 57 56 56 55 54 53 53 53 51 48 45 42 39 37 35 35 38 39 35 28 23 23 28 32 35 40 45 50 55 60 66 70 72 75 82 87 90 94 99 103 106 108 109 105 100 95 91 88 87
60 62 64 67 69 70 70 71 71 72 73 74 76 78 78 76 74 72 71 70 69 68 65 63 60 56 54 54 53 52 51 51 51 50 47 43 40 37 36 34 34 36 39 39 34 27 24 27 30 33 38 43 48 53 58 63 68 71 73 78 85 89 92 97 102 105 107 109 108 104 99 94 90 88
62 63 66 68 69 70 71 71 71 71 73 75 77 77 77 76 74 73 72 72 71 69 66 64 60 56 53 52 51 50 49 49 49 48 46 42 38 34 30 28 28 30 34 36 36 33 29 28 29 31 34 40 45 51 57 61 66 70 71 74 81 88 91 94 99 104 106 109 110 107 102 97 92 89
63 65 67 68 70 70 71 71 71 71 73 75 76 76 75 74 73 72 72 72 71 69 67 64 61 57 55 52 50 48 47 47 48 48 47 43 40 36 31 27 25 25 28 30 32 33 30 29 29 29 29 34 41 48 54 59 62 66 69 71 76 84 90 92 96 102 105 107 110 109 105 100 95 90
64 66 68 69 70 71 71 70 70 71 72 74 74 74 74 73 73 72 72 72 71 68 66 65 62 59 57 54 51 48 46 45 46 47 47 46 44 41 37 33 30 28 27 28 29 30 28 26 28 29 27 28 36 45 51 56 59 63 66 68 71 79 87 90 93 99 104 106 108 110 108 103 98 93
65 67 68 69 70 70 70 70 70 71 72 73 72 71 72 72 72 73 73 73 71 69 67 66 63 60 60 58 55 51 47 44 43 44 45 45 44 43 42 38 34 32 30 30 30 30 27 23 25 29 27 26 32 40 47 52 56 59 62 64 67 73 82 88 90 95 101 104 106 109 109 105 100 95
66 67 68 69 70 70 69 69 69 70 71 71 70 69 70 71 71 72 73 73 71 69 68 67 64 62 61 61 59 54 49 44 41 41 42 44 44 43 43 41 38 35 33 33 33 32 28 22 21 26 26 25 28 36 41 46 52 55 57 60 62 66 75 84 88 91 97 102 104 106 109 108 102 97
66 68 68 69 69 69 68 68 69 70 70 69 67 66 67 69 70 70 70 71 70 68 67 66 64 61 61 61 60 57 52 47 43 40 39 41 43 42 42 40 37 34 34 34 35 34 31 25 21 23 25 22 23 29 35 42 47 50 53 56 59 61 68 78 85 89 93 99 103 104 107 109 105 100
67 68 68 69 69 68 68 68 68 69 69 67 64 63 64 67 68 68 68 68 67 66 65 64 62 60 59 59 59 58 55 51 47 42 39 38 39 40 39 38 37 34 31 32 33 33 31 29 23 19 21 21 19 22 30 37 43 45 47 51 55 57 62 71 81 86 90 95 101 103 105 108 107 102
67 68 68 68 68 68 67 67 68 68 68 65 61 60 61 64 66 66 66 66 66 65 64 63 61 59 58 58 58 58 57 54 51 46 41 37 36 36 36 35 35 35 33 32 32 31 29 29 26 19 17 19 19 20 25 33 38 40 41 46 52 55 58 65 75 83 87 91 98 102 104 106 108 105
67 67 68 68 68 67 66 67 67 67 66 63 60 58 59 62 65 65 65 65 65 64 63 62 60 58 58 57 57 57 57 56 54 50 44 38 34 33 33 32 31 31 32 33 32 28 25 26 27 22 16 16 18 19 23 29 34 35 36 41 48 52 54 59 68 78 84 87 94 100 103 104 107 107
66 67 67 67 67 66 66 66 67 67 65 62 59 57 58 61 64 64 64 64 64 64 63 62 60 58 57 57 56 55 55 56 54 51 47 42 38 34 33 33 31 29 30 32 31 26 22 22 24 22 18 16 16 16 20 25 29 30 32 37 44 49 51 55 62 72 80 84 89 97 102 103 105 108
65 66 66 66 65 65 65 66 66 66 64 60 57 56 56 59 62 63 63 63 63 63 63 62 61 58 56 56 55 53 52 53 53 52 50 47 45 41 37 35 34 32 30 32 31 26 21 20 21 20 18 15 14 14 17 21 24 26 28 33 40 45 48 51 57 66 75 80 85 93 100 102 104 107
64 65 65 64 64 64 65 65 66 65 62 59 57 55 55 57 60 62 62 63 63 63 62 61 61 59 56 54 54 53 51 50 51 52 51 50 48 47 43 39 35 32 29 30 32 29 23 19 19 18 16 14 13 12 13 17 20 23 25 29 36 41 45 48 54 60 69 76 82 88 96 101 103 106
64 64 63 63 63 64 64 65 65 64 61 59 57 55 54 55 57 59 61 62 62 62 61 60 59 58 56 54 54 54 52 50 49 50 50 49 48 47 46 44 39 33 29 28 30 30 26 21 18 17 15 13 12 11 11 13 17 20 23 27 32 38 41 45 51 57 64 72 78 84 92 99 102 104
63 62 62 62 62 63 63 64 64 62 59 58 57 54 53 54 55 57 58 60 61 61 60 59 58 57 56 54 53 54 53 51 48 47 48 48 47 46 45 45 43 39 32 27 27 28 27 24 21 18 16 13 11 9 9 11 15 18 21 25 30 35 39 43 48 53 60 67 75 81 88 95 101 103
61 61 60 61 61 62 63 64 63 60 58 58 57 54 53 53 54 55 57 58 59 60 60 59 58 58 57 56 54 53 53 52 48 46 46 47 47 45 44 43 44 43 39 32 28 26 25 24 23 21 16 13 10 9 8 10 13 16 19 23 27 32 36 40 45 51 57 64 72 79 85 92 98 103
60 60 59 59 60 61 63 63 61 58 57 57 55 52 52 53 54 54 56 57 58 59 59 59 59 58 57 56 54 53 53 52 50 46 44 45 45 45 44 43 42 42 40 37 32 28 24 21 20 19 16 12 9 8 7 9 11 14 17 20 25 29 34 38 43 49 55 61 68 76 82 88 94 100
60 59 59 59 59 60 61 61 60 57 55 54 53 52 52 53 54 54 55 56 58 58 58 58 59 58 56 56 54 53 51 51 50 47 44 43 43 43 43 42 41 41 40 38 35 32 28 23 19 15 13 11 9 7 6 8 10 12 15 18 22 27 31 36 42 48 54 59 65 73 79 85 90 96
60 59 59 58 59 59 60 60 59 57 54 53 53 54 53 53 54 55 56 56 57 58 58 58 58 58 57 55 54 52 50 49 48 47 45 43 42 42 42 41 39 38 39 38 36 33 31 27 23 18 14 11 9 7 5 6 9 11 13 17 21 25 29 34 39 45 51 56 61 68 75 81 86 91
61 60 59 58 58 58 58 58 58 57 55 53 54 55 55 54 56 57 57 57 57 57 57 57 57 58 58 56 54 52 49 48 47 46 45 43 42 41 41 41 39 38 37 36 35 33 30 28 25 20 16 13 11 8 4 4 7 10 13 16 19 22 26 31 37 43 48 54 58 63 70 77 82 87
62 60 58 57 56 57 57 57 57 58 56 54 54 55 56 56 57 58 58 58 57 56 56 55 56 57 57 56 54 52 50 47 46 44 43 43 42 41 40 40 40 38 36 34 33 32 29 27 25 21 17 14 11 8 6 3 5 8 11 15 18 20 23 28 34 40 46 52 56 61 66 73 79 83
62 60 58 57 56 56 55 55 56 57 57 56 57 57 57 58 59 59 59 58 57 56 55 54 54 56 57 56 55 53 50 48 46 44 42 42 41 40 39 39 39 38 36 33 31 30 28 26 24 22 19 16 13 10 7 4 3 6 10 13 16 18 22 26 31 37 44 49 54 59 64 70 76 80
62 60 59 57 56 55 54 53 54 55 56 58 60 60 60 60 61 60 59 58 57 56 55 54 54 54 56 56 55 53 50 48 46 44 42 41 40 39 38 37 37 37 36 33 30 29 28 26 24 23 21 19 16 13 9 5 2 3 8 12 15 18 22 26 29 35 41 47 53 58 63 68 73 78
62 60 58 56 55 54 53 53 53 54 55 58 62 62 62 62 62 61 60 59 58 56 55 54 54 54 55 55 55 54 51 47 45 44 42 40 39 39 38 37 35 35 35 34 30 28 27 26 25 23 21 20 17 15 11 7 3 3 7 11 14 18 22 26 30 35 40 45 51 56 62 68 73 77
60 59 56 54 54 53 52 53 53 53 54 57 61 63 63 63 63 62 60 59 58 57 55 54 55 55 55 54 53 53 51 47 45 44 43 41 39 38 37 37 35 33 33 33 32 29 26 24 23 22 20 17 16 13 11 8 6 4 7 10 14 18 21 26 30 34 39 44 49 54 60 65 70 75
59 57 54 53 52 52 53 53 54 54 54 57 60 63 63 63 62 61 60 58 58 57 55 54 55 56 56 54 53 52 50 46 43 43 42 41 40 39 37 37 36 34 32 31 31 30 26 22 20 20 19 17 14 12 9 8 6 6 7 10 14 17 21 24 28 33 37 42 48 52 56 60 66 71
56 55 53 52 52 53 54 55 56 56 56 58 61 63 63 63 61 60 59 58 58 57 56 55 56 57 57 55 53 51 48 45 42 42 41 40 39 39 37 36 36 35 33 30 28 28 27 24 20 17 17 17 15 13 10 8 7 7 8 11 14 17 21 24 28 32 37 42 46 50 54 59 64 68
53 53 53 53 54 55 56 57 58 58 58 60 62 64 63 62 60 59 58 58 58 57 56 56 58 59 58 55 53 51 47 42 40 40 40 39 38 38 37 36 34 34 33 31 28 25 25 24 22 18 16 15 15 14 11 9 9 9 10 12 15 18 21 25 28 32 37 41 45 49 53 58 63 67
53 54 56 56 56 56 57 58 59 59 59 61 63 64 63 61 59 58 58 58 58 58 57 58 59 60 58 55 53 50 45 40 39 39 39 38 38 37 36 35 34 32 32 31 30 27 23 22 22 20 17 15 14 14 13 12 11 11 12 14 16 19 22 25 29 33 36 40 44 48 52 57 62 67
Wind_Direction
308 309 309 310 311 311 311 311 311 311 311 311 311 311 311 311 311 311 311 311 310 310 310 310 310 311 311 310 309 307 306 306 305 305 305 304 303 301 297 293 288 282 277 271 265 258 252 248 242 234 229 225 223 222 221 219 217 216 216 213 209 209 210 212 215 220 221 220 220 219 217 218 219 218
309 310 310 311 311 312 312 312 311 311 311 311 311 311 312 312 311 311 310 310 310 310 310 311 311 311 310 310 308 307 306 306 306 305 305 305 304 301 297 293 288 282 275 268 263 256 249 245 242 235 229 225 223 221 221 220 218 217 216 214 211 209 209 209 211 216 218 220 221 220 219 220 219 217
309 310 311 312 312 312 312 312 312 312 312 312 312 312 312 311 311 311 310 310 310 311 311 311 312 311 310 309 307 306 306 306 307 307 307 307 306 302 299 294 288 281 274 267 260 255 247 241 240 236 230 225 223 221 220 220 219 217 216 215 212 210 209 209 209 211 215 218 221 221 221 222 221 218
310 311 312 312 313 312 312 312 312 313 313 313 313 313 312 312 311 311 311 311 312 312 313 313 313 312 310 309 309 308 308 308 309 309 309 309 307 304 300 295 289 281 273 266 259 254 247 239 236 235 230 225 223 221 220 219 219 217 216 214 213 211 209 209 209 210 212 216 219 221 221 221 220 219
311 312 312 313 313 313 313 313 314 314 314 314 314 313 313 313 312 313 313 313 314 314 314 315 315 314 312 311 311 311 311 311 312 312 312 311 308 305 302 298 291 282 272 266 260 254 248 241 235 234 231 226 223 221 220 219 218 217 216 214 213 211 209 209 209 210 211 215 217 218 220 219 218 218
312 312 313 313 313 314 314 315 315 315 315 315 315 314 315 314 314 314 315 315 315 316 316 317 317 316 315 314 313 313 314 315 315 314 313 311 308 306 303 298 291 284 274 266 261 256 250 243 236 233 232 228 224 221 220 219 218 217 216 214 213 212 210 209 209 210 211 213 216 217 218 218 217 218
312 313 313 314 314 315 316 316 316 316 316 316 316 316 316 316 317 317 317 317 318 319 319 319 318 318 317 316 316 316 316 317 317 316 315 312 308 307 303 296 290 284 277 267 259 254 250 244 237 233 231 230 226 222 221 220 218 217 216 214 213 212 211 210 209 209 210 212 215 216 217 217 217 217
312 313 314 315 316 316 317 317 317 317 317 317 318 318 318 319 319 319 319 320 321 322 322 321 321 320 320 318 318 318 319 320 320 319 316 313 310 308 303 294 287 283 277 268 258 251 248 244 239 234 231 230 228 224 221 220 219 217 216 215 213 212 212 211 210 209 209 211 213 216 217 216 215 216
313 314 315 316 317 317 318 318 318 318 318 319 320 320 321 321 321 321 322 323 325 326 325 324 324 323 322 321 320 320 321 322 322 321 318 314 312 310 304 293 285 282 277 269 260 251 247 244 240 235 230 229 229 226 222 221 220 218 216 215 214 213 212 212 212 210 209 209 211 214 216 215 214 215
314 315 316 317 318 318 319 319 319 319 320 320 321 322 323 323 323 324 324 326 328 328 327 327 326 325 324 322 322 322 322 322 322 321 318 315 313 311 305 295 286 281 277 272 265 255 246 243 241 237 232 228 228 227 224 221 220 219 217 215 214 213 213 212 213 213 210 209 210 212 215 215 214 214
315 316 317 318 319 319 320 320 320 320 320 321 322 323 324 325 325 326 327 328 329 330 329 329 328 326 325 323 323 323 323 323 323 323 321 317 315 314 309 300 291 282 277 273 270 263 251 242 240 238 234 229 227 227 225 221 220 219 218 216 215 214 213 213 213 214 212 210 209 211 214 215 214 213
316 317 318 319 320 321 321 320 320 321 321 322 323 324 325 326 327 328 328 329 330 331 331 330 328 327 326 324 324 323 323 323 322 322 322 320 318 317 312 304 297 289 281 275 271 267 259 247 240 238 236 232 228 227 226 223 219 218 218 217 215 214 214 213 213 214 214 211 209 210 212 214 214 213
316 317 318 319 320 321 321 321 321 321 322 322 324 325 327 328 328 328 329 329 331 332 332 330 329 328 326 325 323 322 321 321 321 322 323 324 324 322 316 307 301 295 288 280 273 266 261 252 243 238 236 234 231 228 227 225 221 218 217 217 216 215 214 214 213 213 214 213 210 209 211 213 213 213
316 317 318 319 320 321 322 322 322 322 322 323 324 326 327 328 328 328 329 330 331 332 332 330 329 328 327 325 323 322 322 322 323 325 326 328 328 327 323 314 306 300 293 283 275 267 260 254 247 240 236 235 233 230 228 226 223 219 216 217 217 215 214 214 214 213 214 214 211 209 210 212 213 213
316 317 318 319 320 321 322 322 322 322 323 324 325 327 327 328 328 329 329 331 332 333 332 331 330 329 327 325 324 324 324 325 325 326 327 328 329 328 324 318 311 306 300 291 280 270 261 254 248 242 237 235 233 232 229 228 226 221 217 216 216 216 214 213 214 214 214 215 213 210 209 211 212 213
316 317 318 319 320 321 322 323 323 323 324 325 326 327 327 328 328 329 330 332 333 333 332 331 331 330 328 326 325 326 327 326 326 326 327 327 328 326 323 319 313 308 304 300 292 281 267 257 250 243 238 235 233 232 230 229 228 225 219 216 216 216 214 213 213 214 213 214 214 212 210 210 211 212
316 317 318 320 321 322 323 323 323 324 325 326 327 327 327 328 329 330 331 333 334 333 333 332 332 331 330 328 328 328 328 328 326 325 325 326 325 324 321 318 314 309 305 303 300 294 281 265 254 245 239 236 233 231 230 229 228 228 223 217 215 216 216 213 212 213 213 213 214 213 211 210 211 212
316 317 318 320 321 322 323 324 324 324 325 327 327 327 327 328 329 331 332 333 334 334 334 333 332 332 332 331 330 330 330 329 326 325 325 325 325 323 319 315 310 304 299 297 295 293 289 278 265 251 241 238 235 233 231 229 228 228 226 221 216 215 216 214 212 212 213 212 212 213 213 211 211 212
316 317 318 320 321 322 323 324 324 325 326 327 327 326 327 328 329 331 332 333 334 335 334 334 334 333 333 333 332 332 332 331 329 327 327 328 329 327 325 322 317 307 297 292 291 288 286 281 273 261 247 239 237 235 234 231 228 228 227 223 218 216 216 216 213 212 212 212 211 212 213 212 211 211
316 317 318 319 321 322 323 324 325 326 327 327 326 326 326 327 329 331 332 333 334 335 335 335 335 334 334 334 334 334 335 335 334 332 330 332 333 333 332 331 330 324 313 304 299 294 288 282 277 269 257 244 238 235 235 233 230 228 227 225 220 216 216 216 214 212 212 212 211 211 212 212 211 210
316 317 318 319 320 322 323 324 325 326 326 326 326 326 326 327 329 331 332 334 335 336 336 336 336 336 336 335 335 335 336 338 338 336 334 334 336 335 334 334 334 331 323 315 308 302 295 289 282 273 262 252 245 238 233 233 233 230 227 226 222 217 215 216 215 213 212 213 212 210 211 212 211 209
315 316 317 319 320 322 323 324 324 325 326 326 326 326 326 328 329 331 333 334 336 337 338 337 338 338 337 336 335 335 336 338 340 340 338 337 337 337 335 335 334 332 327 321 314 308 304 303 296 283 268 254 249 244 236 232 233 231 228 227 223 218 215 215 216 214 212 212 212 210 209 211 210 209
315 315 317 318 320 322 323 323 324 325 325 325 325 325 326 327 329 331 333 334 336 337 338 338 338 338 337 336 334 334 336 338 341 343 342 341 339 338 336 334 333 332 327 321 314 311 310 310 306 295 282 263 248 246 239 233 232 232 228 227 225 220 215 214 215 215 213 212 213 211 209 210 210 208
314 315 316 318 319 321 322 323 323 324 324 325 325 325 326 327 328 331 333 334 335 336 338 339 338 338 337 336 335 335 336 338 340 342 344 343 341 339 337 335 333 330 326 320 313 311 313 313 308 298 287 273 255 245 241 235 234 233 228 226 225 222 216 213 213 215 214 212 212 212 210 209 209 208
314 314 316 317 319 320 322 322 323 323 323 324 324 323 324 326 327 330 332 334 335 336 338 339 339 338 338 337 337 337 337 337 339 341 343 343 342 341 341 339 336 332 329 323 317 316 318 315 311 305 290 277 265 250 242 237 236 234 229 225 225 223 218 214 212 213 214 212 211 212 211 209 209 208
313 314 315 317 318 320 321 321 322 322 322 323 323 323 323 325 326 329 332 334 335 336 337 339 340 339 338 338 339 338 337 337 337 338 339 341 343 345 345 343 340 335 330 324 321 321 322 317 313 310 301 285 273 257 244 239 238 237 230 223 223 223 219 215 212 212 213 212 211 212 212 210 208 208
312 313 315 316 318 319 320 321 321 321 322 323 323 323 323 324 326 329 332 335 336 336 337 339 340 340 339 339 339 339 338 336 335 336 338 341 343 347 350 349 346 341 334 327 324 326 327 323 316 313 308 295 281 264 248 241 239 237 230 223 222 222 219 215 212 211 212 212 210 211 212 211 209 208
311 313 314 316 317 319 319 320 320 321 322 323 323 323 323 324 326 329 332 335 336 336 337 339 340 341 340 339 338 339 338 336 335 336 340 343 344 346 350 353 352 349 342 333 329 332 336 332 324 318 313 302 288 271 253 244 240 236 230 223 221 221 219 215 212 211 211 211 210 210 211 212 210 209
311 312 314 316 317 318 318 319 319 320 321 322 323 323 322 323 326 329 332 334 336 335 336 338 340 340 340 339 338 338 338 338 338 339 341 344 345 346 348 351 352 353 351 342 335 335 340 342 333 325 320 310 296 278 257 245 240 235 228 223 221 221 218 214 211 210 210 210 210 210 211 212 211 210
311 312 314 315 316 317 317 318 319 320 321 322 323 322 321 322 326 330 332 334 335 335 335 336 339 340 340 339 338 338 339 340 340 340 341 343 346 347 347 348 349 351 355 351 342 337 340 346 345 337 329 318 303 284 260 243 237 233 227 221 219 219 218 214 211 209 209 208 209 209 210 211 212 211
311 312 314 315 316 316 316 317 318 320 320 321 323 322 320 321 325 329 331 333 334 333 333 335 338 340 340 340 339 339 340 340 341 341 341 342 345 346 347 348 348 348 351 354 349 343 341 346 351 348 339 327 310 287 260 240 233 230 225 220 218 217 215 213 210 208 207 207 207 208 209 210 211 211
311 312 313 315 315 314 315 316 318 319 321 322 322 321 320 321 325 328 331 332 333 332 332 334 337 339 341 340 340 339 339 339 340 342 342 342 343 345 347 349 349 348 348 349 351 349 347 350 351 349 343 332 315 292 264 241 231 228 224 219 217 216 213 211 209 208 207 206 206 206 208 209 210 211
310 311 313 314 313 313 314 315 317 319 321 322 321 320 320 322 325 327 330 332 332 332 332 333 336 339 340 341 339 339 339 338 338 340 342 342 342 344 346 349 350 349 348 348 348 349 351 355 354 347 341 335 324 301 268 243 229 225 224 220 217 216 213 209 206 206 206 206 205 205 207 208 209 210
308 310 312 312 312 312 312 314 315 318 320 321 319 319 321 323 325 327 330 331 332 332 331 333 335 337 339 340 339 338 338 337 337 338 340 341 341 343 345 347 349 349 349 348 349 349 350 353 357 352 346 342 336 319 280 248 228 219 220 221 218 215 214 210 207 204 205 206 205 205 205 207 209 210
307 309 311 311 310 310 311 312 314 316 318 319 318 319 322 323 325 327 329 331 332 331 330 332 334 335 337 339 339 337 336 336 336 336 337 339 341 342 343 345 347 350 350 349 349 349 347 348 353 356 356 353 346 331 289 248 230 217 215 218 218 215 213 211 208 205 204 205 206 205 205 206 208 209
305 307 309 309 309 309 309 310 312 314 316 317 318 319 321 323 324 326 328 330 331 330 329 330 333 334 335 337 338 336 334 334 335 335 336 338 340 341 341 343 345 348 350 349 348 347 346 346 349 353 359 4 358 347 324 259 231 219 215 215 216 215 214 211 208 205 204 204 205 206 205 206 207 208
304 306 308 307 306 306 307 308 310 312 314 316 317 318 320 322 323 325 327 328 329 329 327 328 331 332 333 335 336 335 333 332 333 334 334 335 337 339 341 342 342 344 347 349 347 345 345 346 347 350 359 9 9 355 339 303 240 223 219 216 213 212 212 212 209 205 204 203 204 205 205 205 206 208
303 306 306 306 304 304 305 307 309 311 313 315 316 317 318 320 322 323 325 326 327 327 326 326 329 331 332 333 335 334 332 330 331 332 333 334 336 338 339 340 340 340 342 346 346 345 345 346 347 350 356 6 10 360 344 326 257 228 222 218 213 209 209 210 209 206 204 202 203 204 205 205 206 207
303 305 305 303 302 302 304 306 308 311 313 314 315 316 317 319 320 321 323 324 325 325 324 325 327 330 331 332 333 333 331 328 327 329 331 332 334 335 337 338 338 338 338 340 344 345 345 346 348 350 352 357 1 357 345 333 295 233 223 216 211 208 206 205 205 206 205 203 202 203 204 204 206 207
301 303 302 301 301 302 304 306 308 310 311 312 312 314 316 317 318 320 321 322 324 324 323 323 326 328 330 331 331 331 329 326 325 326 328 330 331 333 334 336 337 336 335 336 340 344 346 345 345 345 344 346 350 350 344 334 317 248 223 214 208 206 205 202 200 202 205 204 203 203 203 204 205 206
299 300 300 299 300 301 302 305 307 307 307 309 310 311 313 315 316 318 320 321 322 322 321 322 325 326 328 330 330 330 328 324 322 323 325 327 329 331 332 334 335 336 335 335 336 339 343 343 338 335 335 336 338 340 335 321 299 251 220 212 208 206 206 203 200 200 202 203 204 205 205 205 205 206
296 297 298 299 299 300 301 303 305 305 305 307 308 308 310 313 315 317 319 320 321 320 320 321 323 325 326 328 329 328 326 322 319 320 322 324 327 329 331 333 334 334 335 334 332 332 334 336 334 330 328 327 328 328 323 309 288 256 225 213 208 206 206 204 202 201 202 203 204 206 207 207 207 207
294 296 298 299 299 299 300 301 302 303 304 305 305 306 309 311 314 316 318 319 320 319 319 321 323 323 324 326 327 326 324 320 316 317 319 322 324 326 329 331 332 332 331 331 330 327 327 329 331 329 324 321 320 321 318 305 285 260 237 221 212 207 206 205 203 202 203 204 205 205 206 207 208 208
294 296 298 298 297 297 298 299 300 301 302 303 303 305 308 311 313 315 317 318 318 317 318 320 322 322 322 324 325 324 321 317 314 314 317 320 322 325 326 328 330 329 328 327 327 327 325 325 326 327 324 319 314 312 308 298 281 262 244 230 220 213 208 206 205 204 205 205 206 205 205 206 208 209
295 296 296 295 295 295 296 296 297 299 300 301 302 304 306 309 312 314 317 317 317 316 318 320 321 320 321 323 323 321 319 315 312 312 315 318 321 323 324 326 327 327 326 325 325 325 325 323 322 322 323 319 312 305 299 292 280 265 250 238 228 221 215 211 208 207 207 207 207 207 207 207 208 209
Height
10623 10619 10615 10611 10606 10601 10596 10591 10586 10581 10576 10571 10565 10559 10553 10547 10540 10531 10524 10519 10514 10507 10503 10500 10491 10483 10479 10473 10464 10456 10452 10448 10446 10445 10444 10444 10443 10441 10440 10439 10438 10438 10437 10437 10438 10440 10441 10444 10447 10451 10455 10459 10464 10469 10475 10480 10486 10492 10499 10506 10513 10520 10525 10528 10532 10538 10545 10549 10552 10555 10558 10562 10566 10571
10618 10614 10609 10605 10600 10595 10590 10585 10580 10575 10570 10565 10560 10554 10548 10541 10536 10529 10520 10514 10510 10503 10494 10490 10486 10477 10470 10464 10455 10447 10442 10438 10436 10434 10434 10434 10433 10430 10428 10426 10426 10425 10424 10424 10425 10427 10429 10431 10434 10438 10443 10447 10452 10457 10463 10468 10474 10481 10488 10496 10504 10510 10516 10521 10524 10529 10535 10540 10543 10548 10553 10557 10560 10565
10612 10608 10603 10599 10594 10589 10584 10578 10573 10568 10563 10559 10554 10549 10543 10537 10530 10524 10516 10507 10501 10498 10490 10482 10478 10470 10461 10454 10448 10440 10434 10430 10427 10424 10423 10423 10422 10419 10417 10415 10414 10413 10412 10412 10412 10413 10415 10418 10420 10424 10430 10434 10439 10445 10450 10456 10462 10469 10476 10485 10493 10500 10506 10513 10516 10520 10525 10531 10536 10542 10547 10551 10555 10559
10607 10602 10598 10593 10588 10582 10577 10572 10567 10562 10557 10552 10548 10543 10538 10532 10525 10518 10511 10501 10492 10486 10481 10474 10468 10461 10452 10444 10438 10431 10426 10422 10419 10415 10413 10413 10411 10409 10406 10404 10403 10402 10400 10399 10400 10401 10403 10406 10408 10411 10416 10421 10426 10431 10437 10443 10449 10456 10464 10473 10481 10489 10496 10503 10508 10511 10516 10522 10528 10535 10540 10544 10548 10553
10601 10596 10591 10586 10581 10576 10571 10565 10560 10555 10551 10546 10541 10536 10531 10525 10519 10512 10504 10496 10486 10477 10471 10464 10457 10450 10442 10433 10427 10421 10417 10414 10410 10406 10403 10403 10401 10399 10397 10394 10392 10391 10390 10389 10390 10391 10393 10396 10399 10400 10404 10408 10413 10418 10424 10431 10437 10444 10452 10460 10469 10477 10485 10492 10498 10503 10506 10512 10520 10527 10531 10536 10541 10546
10595 10590 10585 10580 10574 10569 10564 10559 10554 10549 10544 10539 10534 10529 10523 10517 10511 10505 10498 10490 10482 10472 10463 10456 10448 10439 10431 10424 10417 10412 10408 10405 10403 10398 10395 10393 10391 10391 10389 10385 10382 10381 10381 10382 10382 10383 10384 10387 10389 10391 10394 10397 10402 10407 10413 10419 10425 10432 10440 10448 10456 10465 10473 10481 10487 10493 10497 10502 10510 10517 10523 10528 10534 10539
10588 10583 10578 10573 10568 10563 10558 10553 10548 10542 10537 10532 10527 10521 10515 10509 10502 10496 10490 10483 10476 10467 10457 10448 10441 10432 10423 10415 10409 10404 10400 10397 10395 10392 10389 10385 10383 10384 10382 10377 10372 10372 10373 10374 10374 10374 10374 10377 10380 10382 10385 10388 10393 10398 10403 10409 10415 10421 10428 10437 10445 10453 10461 10469 10476 10483 10488 10493 10499 10507 10514 10520 10526 10531
10581 10577 10571 10566 10561 10557 10552 10547 10542 10537 10531 10525 10520 10514 10507 10500 10493 10486 10480 10474 10467 10459 10450 10440 10433 10425 10416 10407 10400 10396 10393 10389 10386 10384 10382 10379 10376 10376 10375 10369 10364 10364 10365 10365 10364 10365 10366 10368 10371 10374 10377 10380 10384 10389 10394 10399 10405 10411 10418 10425 10433 10441 10449 10457 10465 10472 10479 10484 10489 10496 10504 10511 10518 10523
10575 10570 10565 10560 10555 10551 10546 10542 10537 10531 10525 10518 10512 10506 10499 10492 10485 10478 10471 10464 10458 10450 10442 10433 10425 10417 10408 10399 10392 10388 10385 10382 10379 10375 10373 10372 10370 10369 10367 10363 10358 10357 10357 10357 10356 10357 10358 10360 10363 10365 10368 10372 10375 10379 10384 10390 10395 10401 10407 10414 10422 10430 10437 10446 10454 10462 10469 10476 10481 10487 10494 10502 10509 10515
10569 10564 10559 10554 10550 10546 10541 10536 10531 10525 10519 10512 10505 10499 10492 10485 10477 10469 10462 10455 10449 10442 10434 10426 10418 10410 10402 10393 10386 10380 10377 10376 10375 10372 10367 10364 10364 10364 10360 10356 10353 10352 10351 10350 10348 10350 10352 10354 10355 10357 10359 10362 10365 10368 10373 10379 10385 10391 10397 10404 10411 10419 10426 10434 10443 10451 10460 10467 10473 10478 10484 10493 10501 10508
10563 10558 10554 10549 10545 10540 10536 10530 10525 10519 10513 10506 10499 10493 10486 10478 10471 10462 10454 10448 10442 10436 10428 10419 10412 10405 10397 10388 10380 10375 10370 10367 10366 10366 10363 10358 10355 10357 10355 10349 10346 10346 10346 10345 10343 10343 10346 10348 10348 10349 10351 10353 10355 10358 10363 10368 10374 10381 10388 10395 10402 10409 10416 10423 10431 10440 10449 10458 10465 10470 10475 10483 10492 10500
10557 10553 10549 10544 10540 10536 10531 10525 10518 10512 10506 10500 10493 10486 10479 10472 10464 10456 10449 10442 10436 10431 10424 10415 10407 10400 10393 10384 10376 10370 10366 10362 10359 10357 10358 10354 10350 10349 10349 10343 10338 10337 10339 10340 10339 10337 10338 10340 10340 10340 10342 10344 10346 10349 10353 10358 10364 10371 10378 10385 10392 10399 10406 10413 10421 10429 10439 10448 10456 10462 10467 10474 10483 10491
10551 10548 10543 10539 10535 10531 10525 10520 10513 10507 10501 10494 10488 10481 10473 10465 10458 10451 10444 10438 10432 10426 10420 10413 10404 10397 10389 10382 10375 10368 10363 10359 10356 10353 10351 10350 10346 10343 10341 10338 10332 10330 10330 10332 10333 10332 10331 10331 10332 10333 10334 10335 10337 10340 10343 10348 10353 10360 10367 10374 10381 10388 10396 10403 10411 10419 10428 10437 10447 10454 10459 10465 10474 10482
10546 10542 10538 10534 10530 10525 10520 10514 10508 10502 10496 10490 10484 10477 10470 10463 10455 10448 10440 10434 10428 10422 10416 10410 10402 10395 10387 10380 10373 10367 10360 10354 10350 10347 10345 10343 10341 10338 10334 10330 10325 10322 10322 10323 10325 10325 10324 10323 10324 10325 10326 10327 10329 10331 10334 10338 10343 10349 10356 10362 10369 10377 10385 10393 10401 10409 10417 10427 10437 10446 10451 10456 10463 10472
10540 10537 10533 10529 10524 10519 10514 10508 10502 10496 10490 10484 10478 10472 10465 10459 10452 10445 10438 10431 10424 10417 10411 10406 10400 10392 10385 10378 10370 10364 10357 10350 10345 10342 10340 10338 10336 10334 10330 10325 10319 10314 10312 10314 10317 10318 10317 10315 10316 10318 10319 10319 10321 10323 10325 10328 10332 10338 10345 10351 10357 10364 10372 10381 10390 10399 10408 10417 10427 10437 10443 10448 10454 10462
10535 10531 10527 10523 10518 10513 10508 10502 10496 10490 10484 10478 10472 10465 10459 10453 10447 10441 10434 10428 10421 10414 10407 10401 10396 10390 10383 10376 10369 10362 10355 10348 10342 10338 10335 10333 10331 10329 10325 10322 10316 10309 10305 10305 10308 10311 10310 10308 10307 10309 10310 10310 10312 10314 10316 10319 10322 10327 10334 10340 10346 10352 10360 10369 10378 10387 10397 10407 10417 10428 10435 10440 10445 10453
10530 10526 10522 10517 10512 10507 10502 10496 10490 10484 10478 10472 10466 10459 10453 10446 10440 10433 10427 10422 10416 10409 10402 10396 10391 10386 10380 10374 10366 10359 10353 10346 10339 10334 10332 10329 10327 10324 10321 10317 10313 10307 10301 10298 10299 10302 10302 10300 10299 10301 10302 10302 10303 10304 10305 10308 10311 10316 10323 10330 10336 10342 10349 10357 10366 10375 10385 10396 10407 10418 10427 10433 10437 10444
10524 10520 10516 10511 10506 10501 10496 10490 10484 10478 10472 10466 10459 10453 10447 10440 10434 10427 10420 10414 10408 10402 10396 10390 10385 10380 10376 10370 10364 10357 10350 10344 10337 10332 10328 10326 10323 10320 10317 10314 10310 10305 10299 10294 10292 10293 10294 10293 10291 10292 10294 10295 10296 10295 10296 10297 10301 10305 10311 10319 10327 10333 10339 10347 10356 10364 10374 10385 10396 10407 10418 10425 10431 10437
10519 10514 10510 10505 10500 10495 10490 10484 10478 10472 10466 10460 10453 10447 10441 10435 10429 10423 10416 10409 10403 10397 10390 10385 10379 10374 10369 10366 10361 10355 10349 10342 10334 10327 10322 10319 10316 10313 10311 10309 10306 10301 10296 10292 10287 10286 10287 10287 10284 10284 10286 10289 10289 10288 10287 10288 10291 10295 10300 10308 10316 10323 10330 10337 10346 10355 10363 10373 10385 10397 10408 10417 10424 10430
10513 10509 10504 10500 10494 10489 10484 10478 10472 10467 10461 10455 10448 10441 10435 10429 10424 10418 10412 10405 10399 10393 10386 10379 10373 10367 10362 10358 10355 10351 10346 10340 10332 10324 10317 10313 10310 10306 10303 10301 10299 10295 10291 10286 10283 10280 10280 10281 10278 10276 10278 10281 10281 10279 10278 10280 10282 10286 10290 10297 10305 10314 10321 10328 10336 10346 10354 10363 10374 10387 10398 10408 10418 10424
10508 10503 10499 10494 10489 10484 10478 10473 10467 10461 10456 10450 10443 10437 10430 10424 10417 10411 10405 10399 10393 10386 10379 10373 10367 10361 10355 10350 10346 10343 10341 10337 10331 10324 10317 10311 10306 10302 10298 10295 10292 10290 10286 10282 10277 10274 10273 10275 10272 10268 10269 10273 10271 10269 10270 10272 10273 10277 10282 10288 10295 10304 10312 10319 10327 10337 10346 10355 10365 10377 10388 10399 10410 10417
10502 10498 10494 10489 10484 10479 10473 10468 10462 10457 10451 10445 10438 10432 10426 10420 10414 10407 10400 10393 10386 10380 10373 10367 10361 10355 10349 10344 10339 10337 10335 10332 10329 10324 10317 10310 10304 10300 10295 10291 10287 10284 10280 10276 10272 10268 10266 10268 10267 10262 10261 10265 10264 10260 10262 10265 10266 10269 10275 10281 10288 10296 10305 10312 10320 10329 10339 10348 10357 10368 10379 10389 10401 10411
10497 10492 10488 10484 10479 10474 10469 10463 10458 10452 10446 10440 10434 10428 10422 10416 10411 10405 10399 10392 10385 10379 10372 10365 10358 10352 10347 10341 10336 10331 10328 10326 10324 10321 10316 10310 10303 10298 10293 10289 10285 10281 10277 10271 10267 10264 10262 10262 10262 10258 10255 10257 10257 10255 10255 10257 10260 10263 10269 10275 10282 10289 10298 10306 10313 10321 10330 10340 10349 10359 10371 10381 10393 10404
10491 10487 10483 10479 10474 10470 10465 10459 10453 10448 10442 10437 10431 10425 10419 10413 10408 10403 10397 10391 10385 10379 10373 10366 10358 10352 10346 10340 10334 10328 10323 10320 10318 10316 10314 10309 10303 10298 10292 10286 10282 10279 10276 10270 10264 10261 10259 10257 10256 10255 10253 10252 10252 10251 10250 10252 10255 10258 10264 10270 10276 10283 10291 10299 10306 10314 10323 10333 10342 10351 10362 10373 10385 10397
10486 10481 10477 10473 10469 10465 10460 10455 10449 10444 10439 10434 10428 10422 10417 10411 10406 10401 10395 10389 10383 10377 10371 10365 10358 10351 10345 10339 10332 10325 10320 10316 10313 10311 10310 10308 10303 10298 10292 10286 10279 10275 10271 10266 10261 10259 10257 10254 10251 10251 10250 10249 10248 10248 10247 10249 10251 10255 10261 10266 10271 10277 10285 10292 10300 10307 10315 10326 10336 10345 10355 10366 10378 10389
10480 10476 10472 10468 10464 10459 10455 10450 10445 10440 10435 10430 10425 10419 10414 10408 10403 10398 10393 10387 10381 10375 10369 10363 10357 10350 10343 10337 10332 10325 10318 10313 10309 10306 10305 10304 10301 10296 10291 10286 10280 10275 10269 10263 10259 10257 10256 10251 10248 10247 10246 10245 10245 10245 10245 10246 10248 10251 10257 10262 10266 10271 10278 10287 10295 10302 10309 10320 10330 10338 10348 10359 10371 10381
10475 10471 10467 10463 10458 10454 10450 10445 10440 10436 10431 10426 10421 10416 10410 10405 10399 10394 10389 10384 10378 10372 10366 10360 10355 10349 10342 10336 10331 10326 10319 10313 10307 10303 10300 10297 10294 10292 10288 10283 10278 10273 10267 10261 10257 10255 10253 10250 10246 10244 10243 10242 10241 10242 10242 10243 10245 10249 10253 10258 10262 10266 10273 10281 10290 10297 10304 10313 10324 10333 10341 10352 10364 10374
10470 10466 10462 10457 10453 10449 10445 10440 10436 10431 10426 10422 10417 10412 10407 10401 10396 10390 10385 10380 10375 10370 10364 10358 10352 10347 10342 10336 10331 10326 10321 10314 10307 10301 10295 10290 10287 10284 10282 10279 10275 10270 10265 10259 10255 10253 10251 10247 10244 10242 10241 10239 10239 10239 10241 10242 10243 10246 10250 10254 10258 10262 10268 10276 10284 10291 10299 10308 10318 10327 10335 10345 10356 10367
10465 10461 10457 10452 10448 10444 10440 10435 10431 10426 10422 10418 10414 10409 10404 10399 10393 10387 10382 10377 10372 10367 10362 10356 10350 10345 10340 10335 10330 10326 10321 10315 10307 10299 10293 10288 10283 10279 10275 10274 10272 10269 10264 10258 10253 10250 10248 10246 10243 10240 10239 10238 10237 10237 10239 10241 10242 10244 10247 10251 10254 10258 10264 10271 10278 10286 10294 10303 10312 10322 10329 10338 10348 10359
10460 10456 10452 10447 10443 10439 10435 10431 10426 10422 10418 10414 10410 10406 10402 10397 10391 10386 10380 10375 10370 10365 10360 10355 10350 10344 10338 10334 10329 10323 10319 10314 10307 10300 10294 10289 10284 10279 10274 10270 10268 10266 10264 10259 10253 10249 10246 10245 10242 10240 10238 10236 10236 10235 10236 10238 10240 10241 10244 10247 10251 10255 10260 10266 10273 10280 10288 10297 10306 10315 10324 10332 10341 10351
10454 10450 10447 10442 10438 10434 10430 10426 10422 10418 10414 10410 10406 10403 10399 10394 10389 10384 10378 10373 10369 10364 10359 10354 10348 10342 10336 10331 10326 10321 10316 10312 10307 10301 10295 10289 10285 10280 10276 10270 10265 10261 10260 10259 10255 10250 10246 10243 10241 10239 10237 10235 10234 10234 10235 10236 10237 10239 10241 10244 10247 10251 10256 10262 10269 10276 10283 10291 10300 10308 10317 10325 10334 10344
10449 10445 10441 10437 10433 10429 10425 10421 10417 10414 10410 10405 10401 10398 10395 10391 10386 10381 10376 10371 10366 10361 10356 10350 10345 10340 10334 10328 10324 10319 10315 10310 10306 10301 10295 10289 10285 10281 10276 10272 10266 10261 10257 10255 10253 10250 10247 10244 10241 10239 10237 10235 10234 10233 10233 10234 10235 10237 10239 10242 10245 10248 10253 10258 10265 10272 10278 10285 10293 10301 10309 10316 10325 10335
10443 10440 10436 10432 10428 10424 10420 10416 10413 10409 10405 10401 10398 10394 10391 10387 10383 10378 10373 10368 10363 10358 10353 10347 10342 10337 10332 10326 10322 10318 10313 10308 10304 10300 10295 10290 10285 10280 10276 10272 10268 10263 10258 10254 10252 10249 10247 10245 10243 10240 10237 10234 10233 10233 10233 10233 10233 10235 10237 10240 10242 10246 10250 10255 10260 10266 10272 10279 10286 10293 10301 10309 10317 10326
10437 10434 10431 10427 10423 10419 10415 10411 10408 10405 10401 10397 10393 10390 10387 10382 10378 10374 10370 10365 10360 10355 10350 10345 10340 10335 10331 10326 10320 10316 10312 10307 10302 10298 10294 10290 10285 10281 10276 10272 10268 10264 10259 10255 10251 10248 10245 10244 10243 10241 10237 10234 10233 10233 10233 10232 10233 10234 10236 10238 10240 10243 10247 10252 10256 10262 10267 10273 10279 10287 10294 10302 10311 10320
10432 10429 10426 10422 10418 10414 10410 10406 10403 10400 10397 10393 10388 10385 10382 10378 10374 10370 10366 10361 10357 10352 10347 10342 10337 10332 10328 10324 10319 10315 10312 10307 10302 10297 10292 10289 10284 10280 10276 10273 10269 10265 10260 10256 10252 10249 10246 10243 10242 10240 10238 10235 10233 10233 10233 10232 10232 10233 10234 10236 10238 10241 10244 10249 10253 10258 10264 10269 10275 10282 10289 10297 10305 10314
10426 10423 10420 10417 10413 10409 10405 10402 10398 10395 10392 10389 10384 10380 10376 10373 10370 10366 10362 10358 10354 10350 10345 10340 10335 10329 10325 10321 10317 10314 10310 10307 10302 10297 10291 10287 10283 10279 10275 10271 10268 10265 10262 10258 10254 10250 10247 10244 10242 10240 10238 10235 10233 10232 10232 10232 10232 10232 10233 10234 10236 10239 10243 10247 10251 10255 10261 10266 10272 10279 10286 10293 10300 10308
10420 10418 10415 10411 10408 10404 10401 10397 10394 10390 10387 10384 10380 10376 10372 10369 10365 10362 10358 10354 10351 10347 10343 10338 10333 10328 10323 10319 10315 10311 10307 10305 10301 10297 10291 10287 10283 10279 10275 10271 10267 10264 10262 10259 10256 10252 10248 10245 10242 10240 10238 10236 10234 10233 10233 10232 10232 10232 10232 10233 10235 10238 10242 10245 10249 10253 10257 10262 10268 10274 10281 10289 10296 10303
10414 10412 10409 10406 10403 10399 10396 10393 10389 10386 10382 10379 10375 10371 10368 10365 10361 10358 10354 10351 10348 10344 10340 10335 10331 10326 10321 10316 10312 10308 10304 10301 10298 10295 10291 10286 10282 10278 10274 10271 10267 10264 10261 10259 10256 10253 10249 10246 10243 10241 10239 10237 10235 10234 10233 10233 10233 10232 10233 10233 10235 10237 10240 10243 10247 10251 10255 10259 10264 10270 10277 10284 10291 10298
10407 10406 10403 10400 10397 10394 10391 10388 10385 10381 10377 10374 10370 10367 10363 10360 10357 10353 10350 10347 10344 10340 10336 10332 10328 10324 10319 10314 10309 10306 10302 10299 10295 10293 10289 10285 10281 10277 10274 10271 10267 10263 10260 10258 10256 10253 10249 10246 10244 10241 10239 10238 10237 10235 10234 10234 10233 10233 10233 10233 10234 10236 10238 10240 10245 10250 10253 10257 10261 10266 10272 10279 10286 10293
10401 10399 10397 10394 10391 10388 10386 10383 10380 10377 10373 10369 10365 10362 10358 10355 10352 10349 10346 10342 10339 10336 10332 10327 10323 10320 10316 10312 10307 10302 10299 10296 10293 10290 10287 10284 10280 10276 10273 10270 10267 10263 10260 10257 10255 10252 10249 10246 10244 10242 10241 10239 10238 10237 10235 10234 10234 10234 10233 10233 10234 10235 10236 10239 10242 10246 10251 10255 10259 10263 10267 10273 10279 10286
10395 10393 10390 10388 10385 10383 10380 10378 10375 10372 10368 10365 10361 10357 10354 10351 10348 10344 10341 10338 10335 10331 10327 10323 10319 10315 10312 10309 10305 10300 10296 10293 10290 10286 10283 10281 10278 10275 10272 10268 10266 10263 10259 10256 10253 10251 10249 10247 10245 10243 10242 10241 10239 10238 10237 10236 10235 10234 10234 10234 10234 10235 10236 10238 10241 10244 10248 10253 10257 10260 10265 10270 10275 10281
10389 10386 10384 10382 10379 10377 10375 10372 10370 10367 10364 10360 10356 10352 10349 10346 10343 10340 10337 10333 10330 10326 10323 10319 10315 10311 10308 10305 10302 10297 10293 10290 10287 10284 10281 10278 10275 10272 10270 10266 10263 10261 10259 10256 10252 10250 10248 10247 10245 10243 10241 10240 10239 10239 10238 10237 10236 10235 10234 10234 10235 10235 10236 10238 10241 10244 10248 10252 10255 10259 10265 10270 10275 10280
10382 10379 10377 10375 10373 10371 10369 10367 10364 10362 10358 10355 10350 10347 10344 10341 10338 10335 10332 10329 10325 10321 10318 10314 10310 10306 10303 10300 10297 10294 10290 10287 10283 10281 10278 10275 10272 10270 10267 10265 10262 10259 10257 10255 10253 10250 10247 10246 10245 10243 10241 10239 10238 10238 10237 10237 10236 10236 10235 10235 10235 10236 10237 10238 10241 10243 10246 10250 10253 10258 10263 10268 10273 10277
10375 10373 10370 10369 10367 10365 10363 10361 10358 10356 10353 10349 10345 10341 10338 10336 10333 10330 10328 10324 10320 10316 10312 10308 10305 10301 10299 10296 10292 10289 10286 10283 10280 10278 10275 10272 10270 10267 10265 10263 10260 10258 10255 10252 10251 10249 10247 10244 10243 10242 10240 10239 10238 10237 10237 10236 10236 10236 10236 10236 10236 10236 10237 10239 10240 10242 10245 10248 10251 10255 10259 10264 10269 10273
10368 10366 10364 10362 10360 10359 10357 10354 10352 10350 10347 10343 10339 10335 10333 10330 10328 10325 10322 10319 10315 10311 10307 10303 10299 10296 10293 10290 10287 10284 10282 10279 10277 10274 10272 10269 10267 10264 10262 10260 10258 10256 10253 10250 10248 10247 10246 10244 10242 10240 10239 10238 10237 10236 10236 10235 10235 10235 10235 10236 10236 10237 10237 10238 10240 10241 10244 10246 10249 10253 10257 10260 10264 10269